When you browse on this site, cookies collect data to enhance your experience and personalize the content and advertising you see.
Visit our Privacy Policy to learn more. By continuing to use the site, you agree to this use of cookies and data.
  • In Lithuania
  • List of Countries
  • For 7 days
  • Water Temperature
  • Weather Map
  • Weather Widgets
  • user-avatar
    Login

    Hourly Weather Livingstone

    Today, 6 June, Saturday

    Time Temperature Precipitation Wind Pressure Humidity
    00:00 +18°C° 0 mm 1 mps 686 mmHg 76%
    01:00 +15°C° 0 mm 2 mps 686 mmHg 81%
    02:00 +14°C° 0 mm 2 mps 686 mmHg 85%
    03:00 +14°C° 0 mm 2 mps 686 mmHg 88%
    04:00 +13°C° 0 mm 2 mps 686 mmHg 91%
    05:00 +12°C° 0 mm 1 mps 685 mmHg 94%
    06:00 +13°C° 0 mm 2 mps 686 mmHg 89%
    07:00 +14°C° 0 mm 2 mps 687 mmHg 84%
    08:00 +15°C° 0 mm 2 mps 688 mmHg 79%
    09:00 +18°C° 0 mm 3 mps 688 mmHg 66%
    10:00 +21°C° 0 mm 3 mps 688 mmHg 52%
    11:00 +25°C° 0 mm 3 mps 689 mmHg 39%
    12:00 +26°C° 0 mm 3 mps 688 mmHg 35%
    13:00 +27°C° 0 mm 3 mps 688 mmHg 30%
    14:00 +28°C° 0 mm 2 mps 687 mmHg 26%
    15:00 +28°C° 0 mm 2 mps 687 mmHg 27%
    16:00 +27°C° 0 mm 3 mps 686 mmHg 28%
    17:00 +26°C° 0 mm 3 mps 686 mmHg 29%
    18:00 +24°C° 0 mm 3 mps 686 mmHg 34%
    19:00 +20°C° 0 mm 2 mps 686 mmHg 40%
    20:00 +18°C° 0 mm 2 mps 686 mmHg 46%
    21:00 +17°C° 0 mm 2 mps 686 mmHg 49%
    22:00 +16°C° 0 mm 1 mps 686 mmHg 52%
    23:00 +15°C° 0 mm 1 mps 686 mmHg 55%

    Tomorrow, 7 June, Sunday

    Time Temperature Precipitation Wind Pressure Humidity
    00:00 +15°C° 0 mm 1 mps 686 mmHg 57%
    01:00 +14°C° 0 mm 2 mps 686 mmHg 60%
    02:00 +14°C° 0 mm 2 mps 686 mmHg 62%
    03:00 +13°C° 0 mm 2 mps 686 mmHg 67%
    04:00 +12°C° 0 mm 2 mps 686 mmHg 71%
    05:00 +12°C° 0 mm 2 mps 686 mmHg 76%
    06:00 +13°C° 0 mm 2 mps 686 mmHg 73%
    07:00 +12°C° 0 mm 3 mps 687 mmHg 69%
    08:00 +13°C° 0 mm 3 mps 687 mmHg 66%
    09:00 +17°C° 0 mm 3 mps 687 mmHg 57%
    10:00 +20°C° 0 mm 3 mps 688 mmHg 49%
    11:00 +24°C° 0 mm 3 mps 688 mmHg 40%
    12:00 +25°C° 0 mm 3 mps 688 mmHg 36%
    13:00 +26°C° 0 mm 3 mps 687 mmHg 31%
    14:00 +28°C° 0 mm 3 mps 686 mmHg 27%
    15:00 +27°C° 0 mm 3 mps 686 mmHg 28%
    16:00 +26°C° 0 mm 3 mps 686 mmHg 30%
    17:00 +26°C° 0 mm 3 mps 685 mmHg 31%
    18:00 +23°C° 0 mm 2 mps 685 mmHg 38%
    19:00 +20°C° 0 mm 2 mps 686 mmHg 44%
    20:00 +17°C° 0 mm 2 mps 686 mmHg 51%
    21:00 +16°C° 0 mm 1 mps 685 mmHg 55%
    22:00 +15°C° 0 mm 1 mps 685 mmHg 58%
    23:00 +14°C° 0 mm 1 mps 685 mmHg 62%

    Day after tomorrow, 8 June, Monday

    Time Temperature Precipitation Wind Pressure Humidity
    00:00 +14°C° 0 mm 1 mps 685 mmHg 63%
    01:00 +13°C° 0 mm 1 mps 685 mmHg 64%
    02:00 +13°C° 0 mm 2 mps 685 mmHg 66%
    03:00 +12°C° 0 mm 2 mps 685 mmHg 70%
    04:00 +12°C° 0 mm 2 mps 684 mmHg 74%
    05:00 +10°C° 0 mm 2 mps 684 mmHg 79%
    06:00 +12°C° 0 mm 2 mps 685 mmHg 75%
    07:00 +13°C° 0 mm 2 mps 685 mmHg 71%
    08:00 +14°C° 0 mm 2 mps 686 mmHg 67%
    09:00 +17°C° 0 mm 3 mps 686 mmHg 56%
    10:00 +21°C° 0 mm 3 mps 687 mmHg 45%
    11:00 +25°C° 0 mm 3 mps 687 mmHg 35%
    12:00 +26°C° 0 mm 3 mps 687 mmHg 31%
    13:00 +27°C° 0 mm 3 mps 686 mmHg 27%
    14:00 +28°C° 0 mm 3 mps 685 mmHg 23%
    15:00 +27°C° 0 mm 3 mps 685 mmHg 24%
    16:00 +27°C° 0 mm 3 mps 685 mmHg 26%
    17:00 +26°C° 0 mm 3 mps 685 mmHg 27%
    18:00 +22°C° 0 mm 3 mps 685 mmHg 34%
    19:00 +20°C° 0 mm 2 mps 685 mmHg 40%
    20:00 +17°C° 0 mm 2 mps 685 mmHg 46%
    21:00 +16°C° 0 mm 2 mps 685 mmHg 50%
    22:00 +15°C° 0 mm 2 mps 685 mmHg 53%
    23:00 +15°C° 0 mm 1 mps 685 mmHg 56%

    9 June, Tuesday

    Time Temperature Precipitation Wind Pressure Humidity
    00:00 +14°C° 0 mm 1 mps 685 mmHg 60%
    01:00 +13°C° 0 mm 1 mps 684 mmHg 64%
    02:00 +11°C° 0 mm 0 mps 684 mmHg 68%
    03:00 +12°C° 0 mm 1 mps 684 mmHg 70%
    04:00 +11°C° 0 mm 1 mps 684 mmHg 73%
    05:00 +10°C° 0 mm 2 mps 684 mmHg 76%
    06:00 +12°C° 0 mm 2 mps 685 mmHg 72%
    07:00 +13°C° 0 mm 2 mps 685 mmHg 69%
    08:00 +14°C° 0 mm 2 mps 686 mmHg 65%
    09:00 +18°C° 0 mm 3 mps 686 mmHg 54%
    10:00 +21°C° 0 mm 3 mps 687 mmHg 42%
    11:00 +26°C° 0 mm 3 mps 687 mmHg 30%
    12:00 +27°C° 0 mm 3 mps 686 mmHg 27%
    13:00 +28°C° 0 mm 3 mps 686 mmHg 23%
    14:00 +29°C° 0 mm 3 mps 685 mmHg 20%
    15:00 +28°C° 0 mm 3 mps 685 mmHg 21%
    16:00 +27°C° 0 mm 3 mps 685 mmHg 21%
    17:00 +27°C° 0 mm 3 mps 684 mmHg 22%
    18:00 +24°C° 0 mm 3 mps 684 mmHg 29%
    19:00 +20°C° 0 mm 2 mps 684 mmHg 35%
    20:00 +17°C° 0 mm 2 mps 684 mmHg 42%
    21:00 +16°C° 0 mm 2 mps 684 mmHg 47%
    22:00 +15°C° 0 mm 2 mps 684 mmHg 51%
    23:00 +14°C° 0 mm 1 mps 684 mmHg 56%

    10 June, Wednesday

    Time Temperature Precipitation Wind Pressure Humidity
    00:00 +14°C° 0 mm 1 mps 684 mmHg 59%
    01:00 +13°C° 0 mm 1 mps 684 mmHg 62%
    02:00 +13°C° 0 mm 1 mps 683 mmHg 65%
    03:00 +13°C° 0 mm 1 mps 684 mmHg 67%
    04:00 +12°C° 0 mm 1 mps 684 mmHg 69%
    05:00 +12°C° 0 mm 1 mps 684 mmHg 71%
    06:00 +13°C° 0 mm 1 mps 684 mmHg 66%
    07:00 +14°C° 0 mm 1 mps 685 mmHg 62%
    08:00 +14°C° 0 mm 0 mps 686 mmHg 57%
    09:00 +19°C° 0 mm 1 mps 686 mmHg 48%
    10:00 +23°C° 0 mm 2 mps 686 mmHg 39%
    11:00 +27°C° 0 mm 2 mps 687 mmHg 30%
    12:00 +28°C° 0 mm 2 mps 686 mmHg 27%
    13:00 +29°C° 0 mm 2 mps 686 mmHg 23%
    14:00 +31°C° 0 mm 2 mps 685 mmHg 20%
    15:00 +30°C° 0 mm 2 mps 685 mmHg 21%
    16:00 +29°C° 0 mm 2 mps 685 mmHg 22%
    17:00 +28°C° 0 mm 2 mps 684 mmHg 24%
    18:00 +25°C° 0 mm 2 mps 684 mmHg 33%
    19:00 +22°C° 0 mm 3 mps 684 mmHg 42%
    20:00 +19°C° 0 mm 3 mps 684 mmHg 52%
    21:00 +17°C° 0 mm 2 mps 684 mmHg 57%
    22:00 +16°C° 0 mm 2 mps 684 mmHg 62%
    23:00 +15°C° 0 mm 1 mps 684 mmHg 68%

    11 June, Thursday

    Time Temperature Precipitation Wind Pressure Humidity
    00:00 +14°C° 0 mm 1 mps 683 mmHg 69%
    01:00 +14°C° 0 mm 1 mps 683 mmHg 69%
    02:00 +13°C° 0 mm 1 mps 683 mmHg 70%
    03:00 +13°C° 0 mm 1 mps 683 mmHg 70%
    04:00 +13°C° 0 mm 1 mps 683 mmHg 70%
    05:00 +13°C° 0 mm 1 mps 683 mmHg 70%
    06:00 +14°C° 0 mm 1 mps 683 mmHg 64%
    07:00 +15°C° 0 mm 1 mps 684 mmHg 58%
    08:00 +16°C° 0 mm 0 mps 685 mmHg 51%
    09:00 +22°C° 0 mm 1 mps 685 mmHg 42%
    10:00 +26°C° 0 mm 1 mps 686 mmHg 32%
    11:00 +30°C° 0 mm 1 mps 686 mmHg 22%
    12:00 +32°C° 0 mm 1 mps 686 mmHg 20%
    13:00 +33°C° 0 mm 1 mps 685 mmHg 17%
    14:00 +33°C° 0 mm 0 mps 685 mmHg 15%
    15:00 +33°C° 0 mm 1 mps 684 mmHg 16%
    16:00 +31°C° 0 mm 1 mps 684 mmHg 18%
    17:00 +30°C° 0 mm 1 mps 683 mmHg 19%
    18:00 +26°C° 0 mm 1 mps 683 mmHg 28%
    19:00 +23°C° 0 mm 1 mps 683 mmHg 37%
    20:00 +19°C° 0 mm 1 mps 683 mmHg 46%
    21:00 +19°C° 0 mm 1 mps 683 mmHg 48%
    22:00 +18°C° 0 mm 1 mps 683 mmHg 50%
    23:00 +16°C° 0 mm 1 mps 683 mmHg 52%
    Show more